sat.trackr.live / text

‹ back to catalog

STARLINK-6104

NORAD 56127 · 2023-046AM

PAYLOAD ACTIVE UNKNOWN

§ Identity

Operator
Country
US
Launch date
2023-03-29
Launch site
AFETR
Launch vehicle
Mass (kg)
RCS (m²)

Purposes: comms

External: N2YO · Heavens-Above · Gunter

§ Orbital elements

Epoch: 2026-09-20T00:46:10.081632Z

Period
94.27 min
Inclination
43.0031°
Eccentricity
0.0001296
Mean motion
15.27574180 rev/d
Perigee alt
482.2 km
Apogee alt
484.0 km
Semi-major
6,861.2 km
B*
2.4990e-5
RAAN
132.7405°
Arg perigee
274.4439°
Mean anomaly
85.6265°
Rev number
19,188

§ Raw data

STARLINK-61041 56127U 23046AM  26263.03206113  .00000425  00000+0  24990-4 0  99992 56127  43.0031 132.7405 0001296 274.4439  85.6265 15.27574180191886

JSON: /api/v1/satellites/56127 · /tle

For live sub-satellite position, see the globe view (requires WebGL).

§ Visibility from observer

Set your observer location to see the next 7 days of passes ≥ 10°. The values pass through the URL so the page stays shareable.

No JS? Fill the form by hand. The geolocation button needs JavaScript.